TimeHST,TemperatureF,Dew PointF,Humidity,Sea Level PressureIn,VisibilityMPH,Wind Direction,Wind SpeedMPH,Gust SpeedMPH,PrecipitationIn,Events,Conditions,WindDirDegrees,DateUTC
12:54 AM,70.0,61.0,73,30.12,10.0,NNE,8.1,19.6,N/A,,Clear,20,2013-02-16 10:54:00
1:54 AM,70.0,61.0,73,30.11,10.0,ENE,17.3,24.2,N/A,,Scattered Clouds,60,2013-02-16 11:54:00
2:54 AM,70.0,60.1,71,30.10,10.0,Variable,4.6,-,N/A,,Scattered Clouds,0,2013-02-16 12:54:00
3:05 AM,69.8,60.8,73,30.09,10.0,Variable,6.9,-,N/A,,Mostly Cloudy,0,2013-02-16 13:05:00
3:54 AM,69.1,60.1,73,30.10,10.0,Variable,4.6,-,N/A,,Mostly Cloudy,0,2013-02-16 13:54:00
4:04 AM,69.8,60.8,73,30.08,10.0,ENE,9.2,-,N/A,,Partly Cloudy,70,2013-02-16 14:04:00
4:54 AM,68.0,61.0,78,30.10,10.0,ENE,15.0,24.2,N/A,,Partly Cloudy,70,2013-02-16 14:54:00
5:54 AM,68.0,61.0,78,30.10,10.0,NE,17.3,31.1,0.00,,Partly Cloudy,40,2013-02-16 15:54:00
6:54 AM,66.9,61.0,81,30.12,10.0,NE,12.7,34.5,0.00,,Scattered Clouds,40,2013-02-16 16:54:00
7:34 AM,66.2,62.6,88,30.12,2.5,NE,21.9,36.8,0.01,Rain,Rain,40,2013-02-16 17:34:00
7:49 AM,66.2,62.6,88,30.13,6.0,NE,19.6,32.2,0.07,Rain,Light Rain,40,2013-02-16 17:49:00
7:54 AM,68.0,61.0,78,30.15,5.0,NNE,24.2,32.2,0.08,Rain,Light Rain,30,2013-02-16 17:54:00
8:20 AM,69.8,60.8,73,30.15,10.0,NE,17.3,29.9,0.01,,Mostly Cloudy,40,2013-02-16 18:20:00
8:54 AM,71.1,60.1,68,30.16,10.0,NE,23.0,33.4,0.01,,Scattered Clouds,40,2013-02-16 18:54:00
9:54 AM,73.0,59.0,61,30.15,10.0,ENE,25.3,35.7,0.00,,Partly Cloudy,60,2013-02-16 19:54:00
10:54 AM,73.0,60.1,64,30.16,10.0,NE,19.6,35.7,N/A,,Clear,50,2013-02-16 20:54:00
11:54 AM,73.0,60.1,64,30.14,10.0,NE,18.4,31.1,N/A,,Partly Cloudy,40,2013-02-16 21:54:00
12:54 PM,75.0,59.0,57,30.12,10.0,NE,19.6,31.1,0.00,,Clear,50,2013-02-16 22:54:00
1:54 PM,75.0,61.0,62,30.09,10.0,NE,16.1,27.6,0.00,Rain,Light Rain,40,2013-02-16 23:54:00
2:54 PM,73.9,60.1,62,30.06,10.0,ENE,19.6,33.4,0.00,,Partly Cloudy,60,2013-02-17 00:54:00
3:54 PM,72.0,60.1,66,30.07,10.0,ENE,16.1,29.9,N/A,,Scattered Clouds,60,2013-02-17 01:54:00
4:54 PM,72.0,59.0,64,30.09,10.0,ENE,16.1,33.4,N/A,,Clear,60,2013-02-17 02:54:00
5:54 PM,71.1,59.0,66,30.11,10.0,NE,13.8,27.6,N/A,,Clear,50,2013-02-17 03:54:00
6:54 PM,69.1,57.9,68,30.12,10.0,NE,17.3,29.9,N/A,,Clear,40,2013-02-17 04:54:00
7:54 PM,69.1,59.0,70,30.13,10.0,NE,19.6,32.2,N/A,,Clear,50,2013-02-17 05:54:00
8:54 PM,70.0,57.9,65,30.12,10.0,NE,20.7,36.8,N/A,,Clear,40,2013-02-17 06:54:00
9:54 PM,69.1,57.9,68,30.11,10.0,NE,20.7,39.1,N/A,,Clear,40,2013-02-17 07:54:00
10:54 PM,69.1,59.0,70,30.12,10.0,NE,25.3,39.1,N/A,,Mostly Cloudy,40,2013-02-17 08:54:00
11:11 PM,69.8,57.2,64,30.12,10.0,NE,21.9,39.1,N/A,,Scattered Clouds,50,2013-02-17 09:11:00
11:54 PM,68.0,57.0,68,30.11,10.0,NE,24.2,38.0,N/A,,Clear,40,2013-02-17 09:54:00